| time (UTC) | temp C | wind direction | speed KPH | gust KPH | rain 1hr cm | rain 24hr cm | rain mn cm | humidity % | barometer mb |
| 20260505173000 | -17 | 0.0 | 0.0 | 0.00 | 0.00 | 0.00 | 1010.2 | ||
| 20260505171603 | -17 | 0.0 | 0.0 | 0.00 | 0.00 | 0.00 | 1010.1 | ||
| 20260505170053 | -17 | 0.0 | 0.0 | 0.00 | 0.00 | 0.00 | 1010.1 | ||
| 20260505164549 | -17 | 0.0 | 0.0 | 0.00 | 0.00 | 0.00 | 1010.0 | ||
| 20260505163046 | -17 | 0.0 | 0.0 | 0.00 | 0.00 | 0.00 | 1009.8 | ||
| 20260505161539 | -17 | 0.0 | 0.0 | 0.00 | 0.00 | 0.00 | 1009.8 | ||
| 20260505153036 | -17 | 0.0 | 0.0 | 0.00 | 0.00 | 0.00 | 1009.6 | ||
| 20260505151523 | -17 | 0.0 | 0.0 | 0.00 | 0.00 | 0.00 | 1009.6 | ||
| 20260505124540 | -17 | 0.0 | 0.0 | 0.00 | 0.00 | 0.00 | 1009.7 | ||
| 20260505123047 | -17 | 0.0 | 0.0 | 0.00 | 0.00 | 0.00 | 1009.8 | ||
| 20260505121531 | -17 | 0.0 | 0.0 | 0.00 | 0.00 | 0.00 | 1009.9 | ||
| 20260505120026 | -17 | 0.0 | 0.0 | 0.00 | 0.00 | 0.00 | 1009.7 | ||
| 20260505114522 | -17 | 0.0 | 0.0 | 0.00 | 0.00 | 0.00 | 1010.0 | ||
| 20260505113017 | -17 | 0.0 | 0.0 | 0.00 | 0.00 | 0.00 | 1010.0 | ||
| 20260505111514 | -17 | 0.0 | 0.0 | 0.00 | 0.00 | 0.00 | 1009.9 | ||
| 20260505101602 | -17 | 0.0 | 0.0 | 0.00 | 0.00 | 0.00 | 1010.0 | ||
| 20260505100052 | -17 | 0.0 | 0.0 | 0.00 | 0.00 | 0.00 | 1010.0 | ||
| 20260505094548 | -17 | 0.0 | 0.0 | 0.00 | 0.00 | 0.00 | 1010.0 | ||
| 20260505093043 | -17 | 0.0 | 0.0 | 0.00 | 0.00 | 0.00 | 1009.9 | ||
| 20260505091548 | -17 | 0.0 | 0.0 | 0.00 | 0.00 | 0.00 | 1010.0 | ||
| 20260505090036 | -17 | 0.0 | 0.0 | 0.00 | 0.00 | 0.00 | 1009.9 | ||
| 20260505084535 | -17 | 0.0 | 0.0 | 0.00 | 0.00 | 0.00 | 1009.8 | ||
| 20260505083025 | -17 | 0.0 | 0.0 | 0.00 | 0.00 | 0.00 | 1009.8 | ||
| 20260505081523 | -17 | 0.0 | 0.0 | 0.00 | 0.00 | 0.00 | 1009.7 | ||
| 20260505080016 | -17 | 0.0 | 0.0 | 0.00 | 0.00 | 0.00 | 1009.7 | ||
| 20260505074513 | 10 | 238 | 11.3 | 25.7 | 0.00 | 0.00 | 0.00 | 54 | 1009.7 |
| 20260505073008 | 10 | 246 | 9.7 | 22.5 | 0.00 | 0.00 | 0.00 | 53 | 1009.8 |
| 20260505071503 | 10 | 269 | 8.0 | 20.9 | 0.00 | 0.00 | 0.00 | 54 | 1009.6 |
| 20260505070107 | 10 | 279 | 11.3 | 20.9 | 0.00 | 0.00 | 0.00 | 53 | 1009.6 |
| 20260505064639 | 9 | 319 | 9.7 | 25.7 | 0.00 | 0.00 | 0.00 | 49 | 1009.6 |
| 20260505063051 | 8 | 290 | 9.7 | 25.7 | 0.00 | 0.00 | 0.00 | 28 | 1009.7 |
| 20260505061547 | 8 | 252 | 9.7 | 17.7 | 0.00 | 0.00 | 0.00 | 3 | 1009.4 |
| 20260505060042 | 8 | 286 | 9.7 | 20.9 | 0.00 | 0.00 | 0.00 | 1 | 1009.4 |
| 20260505054546 | 9 | 212 | 11.3 | 20.9 | 0.00 | 0.00 | 0.00 | 1 | 1009.2 |
| 20260505053034 | 9 | 268 | 6.4 | 19.3 | 0.00 | 0.00 | 0.00 | 1 | 1009.2 |
| 20260505051529 | 8 | 267 | 8.0 | 16.1 | 0.00 | 0.00 | 0.00 | 1 | 1009.1 |
| 20260505041512 | -17 | 0.0 | 0.0 | 0.00 | 0.00 | 0.00 | 1009.1 | ||
| 20260505040008 | -17 | 0.0 | 0.0 | 0.00 | 0.00 | 0.00 | 1009.0 | ||
| 20260505034503 | -17 | 0.0 | 0.0 | 0.00 | 0.05 | 0.00 | 1009.0 | ||
| 20260505033059 | -17 | 0.0 | 0.0 | 0.00 | 0.05 | 0.00 | 1008.9 | ||
| 20260505031554 | -17 | 0.0 | 0.0 | 0.00 | 0.05 | 0.00 | 1009.0 | ||
| 20260505030100 | -17 | 0.0 | 0.0 | 0.00 | 0.05 | 0.00 | 1008.9 | ||
| 20260505024552 | -17 | 0.0 | 0.0 | 0.00 | 0.15 | 0.00 | 1009.0 | ||
| 20260505023044 | -17 | 0.0 | 0.0 | 0.00 | 0.15 | 0.00 | 1009.1 | ||
| 20260505021537 | -17 | 0.0 | 0.0 | 0.00 | 0.15 | 0.00 | 1009.2 | ||
| 20260505020036 | -17 | 0.0 | 0.0 | 0.00 | 0.15 | 0.00 | 1009.3 | ||
| 20260505014535 | -17 | 0.0 | 0.0 | 0.00 | 0.30 | 0.00 | 1009.5 | ||
| 20260505013023 | -17 | 0.0 | 0.0 | 0.00 | 0.30 | 0.00 | 1009.3 | ||
| 20260505011520 | -17 | 0.0 | 0.0 | 0.00 | 0.30 | 0.00 | 1009.3 | ||
| 20260505010015 | -17 | 0.0 | 0.0 | 0.00 | 0.30 | 0.00 | 1009.4 | ||
| 20260505004527 | -17 | 0.0 | 0.0 | 0.00 | 0.48 | 0.00 | 1009.3 | ||
| 20260505003006 | -17 | 0.0 | 0.0 | 0.00 | 0.48 | 0.00 | 1009.4 | ||
| 20260505001503 | -17 | 0.0 | 0.0 | 0.00 | 0.48 | 0.00 | 1009.4 | ||
| 20260505000112 | -17 | 0.0 | 0.0 | 0.00 | 0.48 | 0.00 | 1009.3 | ||
| 20260504234553 | -17 | 0.0 | 0.0 | 0.00 | 0.51 | 0.00 | 1009.4 | ||
| 20260504233050 | -17 | 0.0 | 0.0 | 0.00 | 0.51 | 0.00 | 1009.5 | ||
| 20260504231613 | -17 | 0.0 | 0.0 | 0.00 | 0.51 | 0.00 | 1009.6 | ||
| 20260504230041 | -17 | 0.0 | 0.0 | 0.00 | 0.51 | 0.00 | 1009.6 | ||
| 20260504224541 | -17 | 0.0 | 0.0 | 0.00 | 0.51 | 0.00 | 1009.7 | ||
| 20260504223032 | -17 | 0.0 | 0.0 | 0.00 | 0.51 | 0.00 | 1009.8 | ||
| 20260504221536 | -17 | 0.0 | 0.0 | 0.00 | 0.51 | 0.00 | 1009.8 | ||
| 20260504220023 | -17 | 0.0 | 0.0 | 0.00 | 0.51 | 0.00 | 1009.8 | ||
| 20260504214519 | -17 | 0.0 | 0.0 | 0.00 | 0.51 | 0.51 | 1009.8 | ||
| 20260504213031 | -17 | 0.0 | 0.0 | 0.00 | 0.51 | 0.51 | 1009.8 | ||
| 20260504211513 | -17 | 0.0 | 0.0 | 0.00 | 0.51 | 0.51 | 1009.7 | ||
| 20260504210006 | -17 | 0.0 | 0.0 | 0.00 | 0.51 | 0.51 | 1009.7 | ||
| 20260504204501 | -17 | 0.0 | 0.0 | 0.00 | 0.51 | 0.51 | 1009.6 | ||
| 20260504203057 | -17 | 0.0 | 0.0 | 0.00 | 0.51 | 0.51 | 1009.4 | ||
| 20260504201554 | -17 | 0.0 | 0.0 | 0.00 | 0.51 | 0.51 | 1009.4 | ||
| 20260504200048 | -17 | 0.0 | 0.0 | 0.00 | 0.51 | 0.51 | 1009.3 | ||
| 20260504194551 | -17 | 0.0 | 0.0 | 0.00 | 0.51 | 0.51 | 1009.2 | ||
| 20260504193045 | -17 | 0.0 | 0.0 | 0.00 | 0.51 | 0.51 | 1009.3 | ||
| 20260504191603 | -17 | 0.0 | 0.0 | 0.00 | 0.51 | 0.51 | 1009.2 | ||
| 20260504190031 | -17 | 0.0 | 0.0 | 0.00 | 0.51 | 0.51 | 1009.1 | ||
| 20260504184540 | -17 | 0.0 | 0.0 | 0.00 | 0.51 | 0.51 | 1009.0 | ||
| 20260504183021 | -17 | 0.0 | 0.0 | 0.00 | 0.51 | 0.51 | 1008.9 | ||
| 20260504181519 | -17 | 0.0 | 0.0 | 0.00 | 0.51 | 0.51 | 1008.8 | ||
| 20260504180014 | -17 | 0.0 | 0.0 | 0.00 | 0.51 | 0.51 | 1008.7 | ||
| 20260504174510 | -17 | 0.0 | 0.0 | 0.00 | 0.51 | 0.51 | 1008.6 |